Location: Ferintosh
(52.7647°N, 112.9692°W)
Time: 14:25:58
(UTC+00:00)

Transit 2A - Pass Details

Date: 27 May 2024
Orbit: 592 x 959 km, 66.7° (Epoch: 23 June)

Event Time Altitude Azimuth Distance (km) Brightness Sun altitude
Rises 10:27:32 0° 311° (NW) 3,253 9.3 -6.3°
Reaches altitude 10° 10:30:21 10° 326° (NW) 2,391 8.8 -6.1°
Maximum altitude 10:34:45 23° 18° (NNE) 1,727 8.8 -5.6°
Drops below altitude 10° 10:39:27 10° 70° (ENE) 2,574 9.9 -5.1°
Sets 10:42:37 0° 85° (E) 3,564 10.3 -4.8°
